C/2021 A6 ( PanSTARRS )

Japanese version
Home page
Updated on June 1, 2021

---------------------------------------------------------------------

* Profile

Discovery Date January 8, 2021
Magnitude 20.8 mag
Discoverer Pan-STARRS 1 telescope (Haleakala)

* Pictures

* Orbital Elements

Epoch 2021 Apr. 16.0 TT = JDT 2459320.5
T 2021 May 5.14660 TT                                   Rudenko
q   7.9289088            (2000.0)            P               Q
z  +0.0000855      Peri.  351.75613     -0.94192950     -0.20536444
 +/-0.0000083      Node   164.07942     +0.33576047     -0.56226488
e   0.9993223      Incl.   75.60746     -0.00580800     +0.80105159
From 98 observations 2020 Nov. 26-2021 May 12, mean residual 0".5.

* Magnitudes Graph

        m1 = 6.0 + 5 log d + 10.0 log r

---------------------------------------------------------------------

The orbital elements are published on M.P.E.C. 2021-L04.
The magnitudes graphs are made with Comet for Windows.

---------------------------------------------------------------------

Copyright(C) Seiichi Yoshida (comet@aerith.net). All rights reserved.